KE6LRO Weather Reports


Display with metric or nautical units.
time (UTC)temp
F
wind
direction
speed
MPH
gust
MPH
rain 1hr
in
rain 24hr
in
rain mn
in
humidity
%
barometer
mb
20260508045921 46 350 0.0 0.0 0.00 0.00 0.00 82 1018.9
20260508045419 46 323 0.0 1.0 0.00 0.00 0.00 82 1018.8
20260508044916 46 358 0.0 0.0 0.00 0.00 0.00 81 1018.8
20260508044413 46 330 0.0 0.0 0.00 0.00 0.00 84 1018.5
20260508043908 46 334 0.0 0.0 0.00 0.00 0.00 83 1018.6
20260508043406 47 323 0.0 0.0 0.00 0.00 0.00 83 1018.5
20260508042902 47 332 0.0 0.0 0.00 0.00 0.00 81 1018.5
20260508042400 47 344 0.0 0.0 0.00 0.00 0.00 80 1018.6
20260508041857 47 351 0.0 0.0 0.00 0.00 0.00 80 1018.4
20260508041353 48 338 0.0 0.0 0.00 0.00 0.00 81 1018.5
20260508040849 48 333 0.0 0.0 0.00 0.00 0.00 80 1018.6
20260508040347 48 329 0.0 0.0 0.00 0.00 0.00 80 1018.3
20260508035845 48 330 0.0 0.0 0.00 0.00 0.00 80 1018.3
20260508035342 48 331 0.0 0.0 0.00 0.00 0.00 79 1018.4
20260508034838 48 313 0.0 0.0 0.00 0.00 0.00 78 1018.5
20260508034336 49 348 0.0 0.0 0.00 0.00 0.00 75 1018.4
20260508033832 49 349 0.0 0.0 0.00 0.00 0.00 73 1017.9
20260508033330 50 332 0.0 0.0 0.00 0.00 0.00 73 1018.1
20260508032828 50 341 0.0 0.0 0.00 0.00 0.00 72 1017.9
20260508032325 51 342 0.0 0.0 0.00 0.00 0.00 72 1018.1
20260508031821 51 326 0.0 0.0 0.00 0.00 0.00 71 1017.9
20260508031318 52 335 0.0 0.0 0.00 0.00 0.00 69 1017.7
20260508030814 52 337 0.0 0.0 0.00 0.00 0.00 68 1017.7
20260508030312 53 321 0.0 1.0 0.00 0.00 0.00 68 1017.7
20260508025808 53 328 0.0 0.0 0.00 0.00 0.00 69 1017.4
20260508025306 54 329 0.0 0.0 0.00 0.00 0.00 66 1017.4
20260508024801 54 326 0.0 0.0 0.00 0.00 0.00 67 1017.6
20260508024259 55 336 0.0 0.0 0.00 0.00 0.00 65 1017.4
20260508023755 56 337 0.0 0.0 0.00 0.00 0.00 63 1017.3
20260508023253 57 338 0.0 2.0 0.00 0.00 0.00 60 1017.1
20260508022748 57 307 1.0 2.0 0.00 0.00 0.00 61 1017.2
20260508022245 58 298 2.0 2.0 0.00 0.00 0.00 59 1017.1
20260508021742 60 293 2.0 2.0 0.00 0.00 0.00 56 1016.9
20260508021238 62 323 0.0 2.0 0.00 0.00 0.00 54 1017.2
20260508020735 65 319 1.0 2.0 0.00 0.00 0.00 46 1017.1
20260508020232 66 352 4.0 5.0 0.00 0.00 0.00 38 1017.2
20260508015729 66 333 2.0 5.0 0.00 0.00 0.00 38 1016.9
20260508015227 67 17 2.0 2.0 0.00 0.00 0.00 37 1016.9
20260508014723 67 307 3.0 5.0 0.00 0.00 0.00 36 1016.9
20260508014220 68 285 2.0 8.0 0.00 0.00 0.00 34 1016.8
20260508013716 69 28 3.0 6.0 0.00 0.00 0.00 34 1017.1
20260508013212 69 10 7.0 8.0 0.00 0.00 0.00 33 1016.7
20260508012710 69 357 1.0 6.0 0.00 0.00 0.00 33 1017.1
20260508012206 68 358 2.0 2.0 0.00 0.00 0.00 33 1016.9
20260508011705 69 14 2.0 6.0 0.00 0.00 0.00 33 1016.7
20260508011202 68 17 3.0 7.0 0.00 0.00 0.00 33 1016.8
20260508010659 69 5 5.0 7.0 0.00 0.00 0.00 32 1016.8
20260508010157 68 7 3.0 6.0 0.00 0.00 0.00 33 1017.1
20260508005654 68 355 1.0 3.0 0.00 0.00 0.00 35 1016.9
20260508005150 70 344 2.0 5.0 0.00 0.00 0.00 33 1016.9
20260508004646 71 335 2.0 5.0 0.00 0.00 0.00 32 1017.1
20260508004142 71 325 1.0 3.0 0.00 0.00 0.00 33 1016.7
20260508003639 71 348 2.0 2.0 0.00 0.00 0.00 34 1016.8
20260508003137 72 312 7.0 9.0 0.00 0.00 0.00 32 1016.8
20260508002633 71 355 0.0 1.0 0.00 0.00 0.00 32 1016.7
20260508002131 71 314 0.0 5.0 0.00 0.00 0.00 34 1016.7
20260508001626 70 305 1.0 1.0 0.00 0.00 0.00 34 1016.7
20260508001122 69 332 0.0 2.0 0.00 0.00 0.00 34 1016.8
20260508000618 69 315 5.0 6.0 0.00 0.00 0.00 34 1016.8
20260508000116 69 326 0.0 2.0 0.00 0.00 0.00 34 1017.1
20260507235613 70 281 3.0 6.0 0.00 0.00 0.00 35 1016.9
20260507235110 71 29 2.0 6.0 0.00 0.00 0.00 33 1016.9
20260507234606 69 335 3.0 8.0 0.00 0.00 0.00 34 1016.8
20260507234103 70 319 6.0 9.0 0.00 0.00 0.00 34 1016.8
20260507233559 72 341 0.0 5.0 0.00 0.00 0.00 30 1016.6
20260507233059 72 307 7.0 10.0 0.00 0.00 0.00 32 1016.7
20260507232554 72 346 6.0 8.0 0.00 0.00 0.00 33 1016.6
20260507232052 71 325 1.0 2.0 0.00 0.00 0.00 31 1016.7
20260507231548 71 240 6.0 9.0 0.00 0.00 0.00 31 1016.7
20260507231045 71 350 1.0 3.0 0.00 0.00 0.00 32 1016.6
20260507230541 72 313 3.0 9.0 0.00 0.00 0.00 30 1016.8
20260507230038 71 0 1.0 2.0 0.00 0.00 0.00 32 1017.1
20260507225533 72 350 2.0 6.0 0.00 0.00 0.00 31 1016.7
20260507225030 71 344 1.0 8.0 0.00 0.00 0.00 31 1016.8
20260507224526 71 314 3.0 9.0 0.00 0.00 0.00 31 1016.7
20260507224022 69 28 2.0 5.0 0.00 0.00 0.00 36 1016.9
20260507223519 72 271 6.0 8.0 0.00 0.00 0.00 31 1016.9
20260507223016 71 227 4.0 9.0 0.00 0.00 0.00 32 1016.8
20260507222513 72 338 1.0 5.0 0.00 0.00 0.00 31 1016.8
20260507222009 69 358 2.0 5.0 0.00 0.00 0.00 33 1017.1
20260507221506 71 305 3.0 9.0 0.00 0.00 0.00 32 1017.2
20260507221002 72 336 3.0 7.0 0.00 0.00 0.00 32 1017.2
20260507220500 71 19 2.0 8.0 0.00 0.00 0.00 34 1017.1
20260507215956 71 307 3.0 9.0 0.00 0.00 0.00 32 1017.1
20260507215453 73 333 1.0 1.0 0.00 0.00 0.00 32 1017.2
20260507214951 73 215 3.0 6.0 0.00 0.00 0.00 34 1017.1
20260507214448 71 299 2.0 3.0 0.00 0.00 0.00 34 1017.3
20260507213943 70 331 2.0 7.0 0.00 0.00 0.00 34 1017.2
20260507213440 71 305 3.0 5.0 0.00 0.00 0.00 32 1017.3
20260507212937 71 18 5.0 6.0 0.00 0.00 0.00 32 1017.4
20260507212432 71 250 5.0 8.0 0.00 0.00 0.00 33 1017.4
20260507211930 71 227 6.0 11.0 0.00 0.00 0.00 32 1017.4
20260507211426 70 322 3.0 9.0 0.00 0.00 0.00 34 1017.5
20260507210923 68 342 0.0 2.0 0.00 0.00 0.00 35 1017.5
20260507210420 68 311 2.0 3.0 0.00 0.00 0.00 36 1017.7
20260507205917 68 34 3.0 3.0 0.00 0.00 0.00 36 1017.6
20260507205414 67 359 4.0 5.0 0.00 0.00 0.00 36 1017.6
20260507204910 67 339 5.0 8.0 0.00 0.00 0.00 37 1017.7
20260507204407 67 335 0.0 6.0 0.00 0.00 0.00 36 1018.1
20260507203904 69 334 3.0 6.0 0.00 0.00 0.00 36 1017.7
20260507203402 68 322 1.0 3.0 0.00 0.00 0.00 37 1017.7
20260507202858 69 321 1.0 2.0 0.00 0.00 0.00 35 1017.7
20260507202355 67 338 2.0 6.0 0.00 0.00 0.00 37 1017.8
20260507201850 66 280 2.0 2.0 0.00 0.00 0.00 38 1017.6
20260507201346 66 330 1.0 3.0 0.00 0.00 0.00 37 1017.6
20260507200843 67 308 3.0 6.0 0.00 0.00 0.00 39 1017.7
20260507200339 69 358 3.0 8.0 0.00 0.00 0.00 38 1017.7
20260507195835 67 326 0.0 3.0 0.00 0.00 0.00 40 1017.8
20260507195332 67 19 3.0 7.0 0.00 0.00 0.00 40 1017.9
20260507194829 68 5 5.0 8.0 0.00 0.00 0.00 40 1017.8
20260507194326 65 337 0.0 1.0 0.00 0.00 0.00 43 1017.8
20260507193822 65 339 0.0 2.0 0.00 0.00 0.00 43 1017.8
20260507193320 66 336 0.0 0.0 0.00 0.00 0.00 41 1017.8
20260507192815 65 327 0.0 1.0 0.00 0.00 0.00 43 1018.1
20260507192312 65 339 1.0 1.0 0.00 0.00 0.00 43 1017.9
20260507191808 65 350 2.0 2.0 0.00 0.00 0.00 41 1018.1
20260507191305 64 352 0.0 1.0 0.00 0.00 0.00 42 1017.9
20260507190802 64 325 0.0 1.0 0.00 0.00 0.00 42 1018.1
20260507190301 64 343 0.0 1.0 0.00 0.00 0.00 44 1017.9
20260507185759 64 334 0.0 1.0 0.00 0.00 0.00 44 1017.9
20260507185255 64 0 0.0 1.0 0.00 0.00 0.00 41 1017.9
20260507184752 64 332 1.0 3.0 0.00 0.00 0.00 42 1018.1
20260507184251 64 1 0.0 1.0 0.00 0.00 0.00 44 1018.1
20260507183747 63 18 2.0 2.0 0.00 0.00 0.00 43 1017.9
20260507183244 64 341 0.0 0.0 0.00 0.00 0.00 43 1018.3
20260507182741 64 319 3.0 5.0 0.00 0.00 0.00 43 1018.1
20260507182236 64 343 1.0 6.0 0.00 0.00 0.00 43 1018.2
20260507181733 64 341 2.0 2.0 0.00 0.00 0.00 42 1018.4
20260507181230 62 315 4.0 6.0 0.00 0.00 0.00 43 1017.9
20260507180726 62 356 2.0 2.0 0.00 0.00 0.00 44 1018.3
20260507180223 63 7 0.0 2.0 0.00 0.00 0.00 45 1018.3
20260507175719 64 41 2.0 2.0 0.00 0.00 0.00 43 1018.5
20260507175216 64 356 1.0 3.0 0.00 0.00 0.00 42 1018.4
20260507174714 64 294 2.0 6.0 0.00 0.00 0.00 42 1018.5
20260507174211 64 99 2.0 3.0 0.00 0.00 0.00 43 1018.6
20260507173708 63 66 2.0 5.0 0.00 0.00 0.00 44 1018.6
20260507173205 64 8 3.0 7.0 0.00 0.00 0.00 43 1018.6
20260507172702 64 324 2.0 3.0 0.00 0.00 0.00 43 1018.8
20260507172159 65 323 5.0 9.0 0.00 0.00 0.00 42 1018.6
20260507171658 64 291 1.0 5.0 0.00 0.00 0.00 43 1018.6
20260507171156 64 316 4.0 8.0 0.00 0.00 0.00 45 1018.7
20260507170653 63 303 2.0 6.0 0.00 0.00 0.00 45 1019.1
20260507170150 63 5 3.0 5.0 0.00 0.00 0.00 46 1018.9
20260507165646 63 55 1.0 6.0 0.00 0.00 0.00 45 1018.9
20260507165142 65 356 2.0 6.0 0.00 0.00 0.00 44 1018.9
20260507164638 65 352 0.0 3.0 0.00 0.00 0.00 42 1018.7
20260507164135 65 326 1.0 2.0 0.00 0.00 0.00 43 1018.8
20260507163632 64 161 5.0 7.0 0.00 0.00 0.00 44 1018.9
20260507163131 64 213 3.0 6.0 0.00 0.00 0.00 46 1018.6
20260507162626 63 257 5.0 8.0 0.00 0.00 0.00 47 1018.8
20260507162123 62 272 2.0 6.0 0.00 0.00 0.00 48 1018.8
20260507161619 63 262 5.0 7.0 0.00 0.00 0.00 48 1018.5
20260507161116 62 151 6.0 7.0 0.00 0.00 0.00 49 1018.7
20260507160612 60 217 1.0 2.0 0.00 0.00 0.00 50 1018.8
20260507160109 59 282 3.0 9.0 0.00 0.00 0.00 55 1018.7
20260507155603 60 273 3.0 9.0 0.00 0.00 0.00 54 1018.8
20260507155101 61 241 4.0 7.0 0.00 0.00 0.00 53 1018.7
20260507154558 59 342 1.0 2.0 0.00 0.00 0.00 55 1018.8
20260507154055 59 356 1.0 3.0 0.00 0.00 0.00 55 1018.8
20260507153551 59 354 0.0 1.0 0.00 0.00 0.00 54 1018.7
20260507153048 59 342 0.0 0.0 0.00 0.00 0.00 63 1018.8
20260507152544 57 342 0.0 0.0 0.00 0.00 0.00 68 1018.8
20260507152040 56 357 0.0 0.0 0.00 0.00 0.00 71 1018.7
20260507151536 55 352 0.0 0.0 0.00 0.00 0.00 79 1018.8
20260507151033 54 347 0.0 0.0 0.00 0.00 0.00 81 1018.9
20260507150530 53 333 0.0 0.0 0.00 0.00 0.00 83 1019.2
20260507150027 52 341 0.0 0.0 0.00 0.00 0.00 82 1018.9
20260507145522 51 313 1.0 1.0 0.00 0.00 0.00 83 1018.8
20260507145020 50 334 0.0 0.0 0.00 0.00 0.00 81 1018.9
20260507144516 50 344 0.0 0.0 0.00 0.00 0.00 85 1018.9
20260507144014 51 340 0.0 0.0 0.00 0.00 0.00 83 1018.9
20260507143511 50 331 0.0 0.0 0.00 0.00 0.00 83 1018.8
20260507143009 48 355 0.0 0.0 0.00 0.00 0.00 86 1018.7
20260507142504 46 326 1.0 1.0 0.00 0.00 0.00 87 1018.6
20260507142001 45 304 2.0 2.0 0.00 0.00 0.00 91 1018.6
20260507141456 44 10 1.0 2.0 0.00 0.00 0.00 92 1018.6
20260507140954 43 333 0.0 1.0 0.00 0.00 0.00 93 1018.6
20260507140450 42 8 0.0 0.0 0.00 0.00 0.00 93 1018.6
20260507135948 42 316 0.0 0.0 0.00 0.00 0.00 94 1018.5
20260507135444 41 327 0.0 2.0 0.00 0.00 0.00 94 1018.4
20260507134942 40 331 0.0 0.0 0.00 0.00 0.00 95 1018.4
20260507134438 40 309 1.0 1.0 0.00 0.00 0.00 95 1018.5
20260507133934 40 313 0.0 0.0 0.00 0.00 0.00 95 1018.5
20260507133431 40 351 0.0 0.0 0.00 0.00 0.00 96 1018.3
20260507132929 40 321 0.0 0.0 0.00 0.00 0.00 96 1018.3
20260507132425 39 332 0.0 0.0 0.00 0.00 0.00 97 1018.2
20260507131921 39 316 1.0 1.0 0.00 0.00 0.00 97 1018.3
20260507131419 38 343 0.0 1.0 0.00 0.00 0.00 97 1018.4
20260507130916 38 330 0.0 0.0 0.00 0.00 0.00 97 1018.5
20260507130413 38 330 0.0 0.0 0.00 0.00 0.00 97 1018.2
20260507125912 38 347 0.0 0.0 0.00 0.00 0.00 97 1018.4
20260507125409 38 302 1.0 2.0 0.00 0.00 0.00 97 1018.5
20260507124906 38 333 0.0 0.0 0.00 0.00 0.00 97 1018.3
20260507124402 38 316 0.0 0.0 0.00 0.00 0.00 97 1018.4
20260507123901 38 343 0.0 0.0 0.00 0.00 0.00 97 1018.4
20260507123357 38 334 0.0 0.0 0.00 0.00 0.00 97 1018.4
20260507122854 38 339 0.0 0.0 0.00 0.00 0.00 97 1018.3
20260507122349 38 331 0.0 0.0 0.00 0.00 0.00 97 1017.9
20260507121846 38 339 0.0 0.0 0.00 0.00 0.00 97 1018.3
20260507121341 38 332 0.0 0.0 0.00 0.00 0.00 97 1018.2
20260507120838 38 348 0.0 0.0 0.00 0.00 0.00 96 1018.2
20260507120334 38 350 0.0 0.0 0.00 0.00 0.00 96 1018.1
20260507115831 38 338 0.0 0.0 0.00 0.00 0.00 96 1017.9
20260507115326 39 337 0.0 0.0 0.00 0.00 0.00 96 1017.9
20260507114822 39 338 0.0 0.0 0.00 0.00 0.00 96 1018.1
20260507114320 39 339 0.0 0.0 0.00 0.00 0.00 95 1017.7
20260507113817 39 337 0.0 0.0 0.00 0.00 0.00 95 1017.8
20260507113314 39 318 1.0 1.0 0.00 0.00 0.00 95 1017.9
20260507112812 40 347 0.0 1.0 0.00 0.00 0.00 94 1017.7
20260507112308 40 318 0.0 1.0 0.00 0.00 0.00 95 1017.7
20260507111806 40 329 0.0 1.0 0.00 0.00 0.00 94 1017.8
20260507111302 40 335 0.0 0.0 0.00 0.00 0.00 94 1017.8
20260507110758 40 341 0.0 0.0 0.00 0.00 0.00 94 1017.5
20260507110255 41 353 0.0 0.0 0.00 0.00 0.00 94 1017.6
20260507105752 41 329 0.0 1.0 0.00 0.00 0.00 93 1017.5
20260507105248 41 335 0.0 0.0 0.00 0.00 0.00 93 1017.6
20260507104745 42 320 0.0 0.0 0.00 0.00 0.00 92 1017.4
20260507104242 42 319 0.0 0.0 0.00 0.00 0.00 92 1017.3
20260507103738 42 338 0.0 0.0 0.00 0.00 0.00 92 1017.2
20260507103234 42 327 0.0 1.0 0.00 0.00 0.00 91 1017.2
20260507102731 42 335 0.0 0.0 0.00 0.00 0.00 91 1017.2
20260507102227 42 337 0.0 1.0 0.00 0.00 0.00 91 1017.2
20260507101723 43 335 0.0 2.0 0.00 0.00 0.00 90 1016.8
20260507101219 43 332 0.0 1.0 0.00 0.00 0.00 90 1017.1
20260507100716 44 311 0.0 0.0 0.00 0.00 0.00 88 1016.9
20260507100215 43 341 0.0 3.0 0.00 0.00 0.00 92 1016.9
20260507095712 43 357 0.0 1.0 0.00 0.00 0.00 91 1017.1
20260507095209 43 2 0.0 3.0 0.00 0.00 0.00 91 1016.8
20260507094705 43 340 0.0 0.0 0.00 0.00 0.00 89 1016.9
20260507094202 44 311 1.0 1.0 0.00 0.00 0.00 89 1016.9
20260507093659 44 317 0.0 1.0 0.00 0.00 0.00 89 1016.9
20260507093158 45 313 1.0 2.0 0.00 0.00 0.00 87 1016.9
20260507092655 45 359 0.0 1.0 0.00 0.00 0.00 87 1016.8
20260507092151 45 328 0.0 1.0 0.00 0.00 0.00 88 1016.8
20260507091648 46 310 2.0 3.0 0.00 0.00 0.00 86 1016.9
20260507091144 46 315 0.0 1.0 0.00 0.00 0.00 86 1016.8
20260507090639 46 337 0.0 0.0 0.00 0.00 0.00 86 1016.6
20260507090137 47 302 2.0 2.0 0.00 0.00 0.00 84 1016.6
20260507085634 47 15 1.0 1.0 0.00 0.00 0.00 82 1016.7
20260507085130 47 331 0.0 0.0 0.00 0.00 0.00 84 1016.8
20260507084627 48 310 2.0 2.0 0.00 0.00 0.00 83 1016.7
20260507084124 48 339 0.0 0.0 0.00 0.00 0.00 80 1016.7
20260507083621 49 346 0.0 0.0 0.00 0.00 0.00 78 1016.9
20260507083118 48 5 1.0 2.0 0.00 0.00 0.00 80 1016.7
20260507082613 48 46 1.0 1.0 0.00 0.00 0.00 82 1016.7
20260507082110 47 330 0.0 0.0 0.00 0.00 0.00 84 1016.9
20260507081607 47 327 0.0 1.0 0.00 0.00 0.00 84 1016.7
20260507081104 47 12 1.0 1.0 0.00 0.00 0.00 82 1016.9
20260507080600 48 327 0.0 0.0 0.00 0.00 0.00 82 1016.9
20260507080056 49 306 1.0 2.0 0.00 0.00 0.00 78 1016.7
20260507075551 49 310 1.0 3.0 0.00 0.00 0.00 78 1016.6
20260507075048 49 327 0.0 0.0 0.00 0.00 0.00 80 1016.8
20260507074545 50 297 2.0 2.0 0.00 0.00 0.00 78 1016.7
20260507074043 50 336 0.0 0.0 0.00 0.00 0.00 78 1016.6
20260507073539 50 15 1.0 2.0 0.00 0.00 0.00 75 1016.5
20260507073036 51 11 0.0 1.0 0.00 0.00 0.00 74 1016.7
20260507072533 51 349 0.0 2.0 0.00 0.00 0.00 75 1016.7
20260507072030 51 299 1.0 3.0 0.00 0.00 0.00 73 1016.7
20260507071528 52 308 1.0 2.0 0.00 0.00 0.00 74 1016.8
20260507071024 51 335 0.0 0.0 0.00 0.00 0.00 77 1016.9
20260507070521 51 350 0.0 1.0 0.00 0.00 0.00 76 1016.6
20260507070018 51 334 0.0 1.0 0.00 0.00 0.00 73 1016.8
20260507065514 51 328 0.0 1.0 0.00 0.00 0.00 75 1016.6
20260507065012 51 328 0.0 1.0 0.00 0.00 0.00 75 1016.7
20260507064510 51 331 0.0 0.0 0.00 0.00 0.00 75 1016.6
20260507064008 51 327 0.0 1.0 0.00 0.00 0.00 75 1016.7
20260507063504 51 3 0.0 0.0 0.00 0.00 0.00 72 1016.6
20260507063002 51 337 0.0 0.0 0.00 0.00 0.00 72 1016.6
20260507062458 52 10 1.0 1.0 0.00 0.00 0.00 74 1016.6
20260507061956 52 328 0.0 0.0 0.00 0.00 0.00 71 1016.5
20260507061454 53 11 1.0 2.0 0.00 0.00 0.00 71 1016.5
20260507060952 53 325 0.0 0.0 0.00 0.00 0.00 71 1016.4
20260507060448 55 312 2.0 3.0 0.00 0.00 0.00 70 1016.5
20260507055945 53 314 1.0 1.0 0.00 0.00 0.00 67 1016.5
20260507055440 54 321 0.0 2.0 0.00 0.00 0.00 66 1016.6
20260507054937 54 345 0.0 0.0 0.00 0.00 0.00 66 1016.5
20260507054433 55 337 0.0 0.0 0.00 0.00 0.00 65 1016.5
20260507053931 55 322 0.0 1.0 0.00 0.00 0.00 64 1016.7
20260507053428 56 320 1.0 2.0 0.00 0.00 0.00 65 1016.5
20260507052927 57 38 2.0 3.0 0.00 0.00 0.00 57 1016.4
20260507052424 58 283 3.0 3.0 0.00 0.00 0.00 57 1016.6
20260507051920 55 173 3.0 3.0 0.00 0.00 0.00 57 1016.4
20260507051418 56 318 1.0 2.0 0.00 0.00 0.00 61 1016.5
20260507050915 58 23 1.0 3.0 0.00 0.00 0.00 57 1016.7
20260507050411 58 350 0.0 1.0 0.00 0.00 0.00 57 1016.6